CZ-6A DEB, 61304

Orbit data source: Space-Track

CZ-6A DEB, 61304 is space debris in LEO originally from a launch on Tue, 06 Aug 2024 UTC launched from the Taiyaun Space Center, China (TSC). Debris objects in space refer to the collection of defunct objects orbiting the Earth. Examples of debris include non-operational satellites, rocket bodies, and fragments generated from explosions, collisions, or faulty payload assembly.

Loading next visibility...
Identifier
61304, 2024-140TR
Orbit
LEO
Country
Flag of CNCN / PRC
Related business
Manufacturer
SAST
Mission
Spacecraft
Bus & Motor
Unknown
Mass
Unknown
Launch date (UTC)
2024-08-06 (2 years ago)
Launch vehicle
Unknown
Launch site
Taiyaun Space Center, China (TSC)
Object type
Payload
Rocket body
Debris
Shape & HBR
Unknown shape, 0.1 m
Radar Cross Section
Medium (>0.1 m² and <1 m²)

Expand to show TLE details & history
Last TLE update: 13 hours ago

TLE from 13 hours ago
0 CZ-6A DEB
1 61304U 24140TR  26171.30004086  .00001443  00000-0  34753-3 0  9990
2 61304  89.2030 287.4569 0074212 234.8951 124.5285 14.51154835 95768
Epoch: 2026-06-20T07:12Z
TLE epoch observation values (Epoch: 2026-06-20T07:12:03.530Z)
Latitude
Longitude
-89.07445°
Altitude
755.114 km
Speed
7.461 km/s
True Right ascension
19h 09m 49s
True Declination
0° 00' 00"
Sunlit
Object was in full shadow at epoch
Visualization orbit readout
Latitude
Unknown
Longitude
Unknown
Altitude
Unknown
Speed
Unknown
Apparent Right ascension
Unknown
Apparent Declination
Unknown
Sunlit
N/A
Visualization observer readout
Local Sidereal Time
07:24:09
Azimuth
Unknown
Elevation
Unknown
Doppler factor
Unknown
Orbital elements
Apogee altitude
771.452 km
Perigee altitude
666.117 km
Semi-major axis
7,096.922 km
Eccentricity
0.00742
Inclination
89.203°
RAAN
287.4569°
Arg. of periapsis
234.8951°
True anomaly
125.22542°
Mean anomaly
124.5285°
Eccentric anomaly
124.87733°
Mean motion
3.63026 °/min
Orbital period
99.17 mins
BSTAR
0.00034753
Loading maneuver chart data...
Computing Atmospheric mass density...
Loading historical data...
Loading historical data...
Loading historical data...
Loading historical data...
Loading historical data...
Loading historical data...
Loading historical data...

Documentation

Showing up to 5 results
|